Hamilton Island, Australia

8:13 AM AEST on October 22, 2017 (GMT +1000)
Hamilton Island

Weather History for YBHM - September, 2013

Change the Weather History Date:

Tuesday, September 10, 2013

  Actual Average Record
Temperature  
Mean Temperature 72 °F -  
Max Temperature 78 °F - - ()
Min Temperature 67 °F - - ()
Cooling Degree Days 8    
Growing Degree Days 22 (Base 50)    
Moisture  
Dew Point 67 °F    
Average Humidity 84    
Maximum Humidity 98    
Minimum Humidity 59    
Precipitation  
Precipitation 0.00 in - - ()
Sea Level Pressure  
Sea Level Pressure 29.98 in    
Wind  
Wind Speed 6 mph ()    
Max Wind Speed 15 mph    
Max Gust Speed -    
T = Trace of Precipitation, MM = Missing Value Source: Averaged Metar Reports

Daily Weather History Graph

Daily Weather History Graph

Search for Another Location

Airport or City:

Trip Planner

Search our weather history database for the weather conditions in past years. The results will help you decide how hot, cold, wet, or windy it might be!

Date:

Astronomy

Sep. 10, 2013 Rise Set
Actual Time 6:05 AM AEST 5:57 PM AEST
Civil Twilight 5:43 AM AEST 6:19 PM AEST
Nautical Twilight 5:17 AM AEST 6:45 PM AEST
Astronomical Twilight 4:52 AM AEST 7:10 PM AEST
Moon 9:04 AM AEST (9/10) 10:20 PM AEST (9/10)
Length of Visible Light 12h 36m
Length of Day
11h 52m
Waxing Crescent, 22% of the Moon is Illuminated
Sep 10
Waxing Crescent
Sep 13
First Quarter
Sep 19
Full
Sep 27
Last Quarter
Oct 5
New

Hourly Weather History & Observations

Time (AEST) Temp. Dew Point Humidity Pressure Visibility Wind Dir Wind Speed Gust Speed Precip Events Conditions
12:00 AM 69 °F 64 °F 81% 30.06 in - NE 5.8 mph - -  
12:00 AM 69.8 °F 64.4 °F 83% 30.04 in - NE 5.8 mph - N/A   Unknown
1:00 AM 68.0 °F 66.2 °F 94% 30.04 in - Calm Calm - N/A   Unknown
2:00 AM 68.0 °F 64.4 °F 88% 30.01 in - Calm Calm - N/A   Unknown
2:30 AM 69.8 °F 66.2 °F 88% 30.01 in - SSE 4.6 mph - N/A   Unknown
3:00 AM 68 °F 65 °F 85% 30.00 in - East 3.5 mph - -  
3:00 AM 68.0 °F 64.4 °F 88% 30.01 in - East 3.5 mph - N/A   Unknown
3:30 AM 68.0 °F 66.2 °F 94% 29.98 in - ENE 6.9 mph - N/A   Unknown
4:00 AM 68.0 °F 66.2 °F 94% 29.98 in - ENE 6.9 mph - N/A   Unknown
4:30 AM 68.0 °F 64.4 °F 88% 29.98 in - ENE 4.6 mph - N/A   Unknown
5:00 AM 68.0 °F 66.2 °F 94% 30.01 in - Calm Calm - N/A   Unknown
5:30 AM 68.0 °F 66.2 °F 94% 30.01 in - SSE 4.6 mph - N/A   Unknown
6:00 AM 67 °F 67 °F 98% 30.01 in - SSE 3.5 mph - -  
6:00 AM 68.0 °F 66.2 °F 94% 30.01 in - SSE 3.5 mph - N/A   Unknown
6:30 AM 68.0 °F 66.2 °F 94% 30.01 in - Calm Calm - N/A   Unknown
7:00 AM 68.0 °F 66.2 °F 94% 30.01 in - Calm Calm - N/A   Unknown
7:30 AM 69.8 °F 68.0 °F 94% 30.04 in - SE 2.3 mph - N/A   Unknown
8:00 AM 71.6 °F 68.0 °F 88% 30.04 in - South 5.8 mph - N/A   Unknown
8:30 AM 73.4 °F 68.0 °F 83% 30.04 in - SE 6.9 mph - N/A   Unknown
9:00 AM 73 °F 67 °F 78% 30.05 in - SE 6.9 mph - -  
9:00 AM 73.4 °F 68.0 °F 83% 30.04 in - SE 6.9 mph - N/A   Unknown
9:30 AM 73.4 °F 68.0 °F 83% 30.04 in - SE 6.9 mph - N/A   Unknown
10:00 AM 75.2 °F 68.0 °F 78% 30.04 in - SE 9.2 mph - N/A   Unknown
10:30 AM 77.0 °F 69.8 °F 78% 30.04 in - SSE 8.1 mph - N/A   Unknown
11:00 AM 73.4 °F 68.0 °F 83% 30.01 in - SSE 9.2 mph - N/A   Unknown
11:30 AM 73.4 °F 68.0 °F 83% 30.01 in - SE 9.2 mph - N/A   Unknown
12:00 PM 73 °F 68 °F 78% 30.00 in - SE 9.2 mph - -  
12:00 PM 73.4 °F 68.0 °F 83% 29.98 in - SE 9.2 mph - N/A   Unknown
12:30 PM 73.4 °F 68.0 °F 83% 29.98 in - ESE 8.1 mph - N/A   Unknown
1:00 PM 75.2 °F 68.0 °F 78% 29.95 in - ESE 6.9 mph - N/A   Unknown
1:30 PM 77.0 °F 64.4 °F 65% 29.92 in - NW 11.5 mph - N/A   Unknown
2:00 PM 77.0 °F 66.2 °F 69% 29.92 in - NW 12.7 mph - N/A   Unknown
2:30 PM 78.8 °F 64.4 °F 61% 29.92 in - NW 10.4 mph - N/A   Unknown
3:00 PM 77 °F 65 °F 59% 29.90 in - NNW 10.4 mph - -  
3:00 PM 77.0 °F 66.2 °F 69% 29.89 in - NNW 10.4 mph - N/A   Unknown
3:30 PM 77.0 °F 66.2 °F 69% 29.89 in - WSW 4.6 mph - N/A   Unknown
4:00 PM 78.8 °F 66.2 °F 65% 29.89 in - NNW 5.8 mph - N/A   Unknown
4:30 PM 77.0 °F 66.2 °F 69% 29.89 in - South 4.6 mph - N/A   Unknown
5:00 PM 75.2 °F 68.0 °F 78% 29.89 in - NW 15.0 mph - N/A   Unknown
5:30 PM 75.2 °F 66.2 °F 73% 29.92 in - NW 15.0 mph - N/A   Unknown
6:00 PM 73 °F 69 °F 82% 29.92 in - NW 15.0 mph - -  
6:00 PM 73.4 °F 68.0 °F 83% 29.92 in - NW 15.0 mph - N/A   Unknown
6:30 PM 73.4 °F 68.0 °F 83% 29.92 in - NNW 9.2 mph - N/A   Unknown
7:00 PM 71.6 °F 68.0 °F 88% 29.95 in - NNW 9.2 mph - N/A   Unknown
7:30 PM 71.6 °F 68.0 °F 88% 29.95 in - North 6.9 mph - N/A   Unknown
8:00 PM 71.6 °F 68.0 °F 88% 29.95 in - NNW 9.2 mph - N/A   Unknown
8:30 PM 71.6 °F 68.0 °F 88% 29.98 in - North 6.9 mph - N/A   Unknown
9:00 PM 71 °F 68 °F 88% 29.98 in - North 8.1 mph - -  
9:00 PM 71.6 °F 68.0 °F 88% 29.98 in - North 8.1 mph - N/A   Unknown
9:30 PM 71.6 °F 68.0 °F 88% 29.98 in - North 9.2 mph - N/A   Unknown
10:00 PM 71.6 °F 68.0 °F 88% 29.98 in - North 6.9 mph - N/A   Unknown
10:30 PM 69.8 °F 68.0 °F 94% 29.98 in - NE 3.5 mph - N/A   Unknown
11:00 PM 69.8 °F 68.0 °F 94% 29.98 in - North 4.6 mph - N/A   Unknown
11:30 PM 69.8 °F 68.0 °F 94% 29.98 in - NNE 3.5 mph - N/A   Unknown